Location: Unspecified
(50.0000°N, 15.0000°E)
Time: 03:16:39
(UTC+01:00)

ISS - Pass Details

Date: 03 December 2021
Orbit: 413 x 422 km, 51.6° (Epoch: 22 January)

Event Time Altitude Azimuth Distance (km) Brightness Sun altitude
Rises 18:38:24 0° 287° (WNW) 2,384 1.2 -24.5°
Reaches altitude 10° 18:40:37 10° 279° (W) 1,513 0.0 -24.8°
Enters shadow 18:43:02 31° 241° (WSW) 761 -2.0 -25.2°
